Powrót do katalogu

ATLAS 5 CENTAUR DEB

AktywnyHEO
NORAD 44848·DEBRIS·🇺🇸 United States

Wystrzelony Sep 17, 2014 z Cape Canaveral Space Force Station

Loading…

Następne Przeloty (najbliższe 24 godziny)

TLE

Starzejące sięSource: Space-Track

Epoka: Sep 4, 2026, 02:44 UTC

1 44848U 14055CG  26247.11437437 -.00000163  00000-0  00000-0 0  9995
2 44848  20.7682 110.4015 4945653 225.3581  81.7736  1.88592327 48750

Śledź ATLAS 5 CENTAUR DEB w czasie rzeczywistym z AllMySat

Download on the App Store